EW7772 Weather Reports


time (UTC)temp
F
wind
direction
speed
knots
gust
knots
rain 1hr
in
rain 24hr
in
rain mn
in
humidity
%
barometer
mb
20260906051603 49 279 0.0 0.0 0.00 0.00 0.00 90 1027.1
20260906050106 49 279 0.0 0.0 0.00 0.00 0.00 90 1027.0
20260906044555 49 279 0.0 0.0 0.00 0.04 0.00 90 1027.0
20260906043059 49 279 0.0 0.0 0.00 0.04 0.00 89 1027.1
20260906041557 49 279 0.0 0.0 0.00 0.04 0.00 89 1027.0
20260906040051 49 279 0.0 0.0 0.00 0.04 0.00 89 1026.9
20260906034607 49 279 0.0 0.0 0.00 0.25 0.00 89 1027.0
20260906033047 50 279 0.0 0.0 0.00 0.25 0.00 88 1026.8
20260906031550 50 279 0.0 0.0 0.00 0.25 0.00 88 1026.9
20260906030044 50 279 0.0 0.0 0.00 0.25 0.00 88 1026.9
20260906024542 50 279 0.0 0.0 0.00 0.49 0.00 88 1026.7
20260906023041 51 279 0.0 0.0 0.00 0.49 0.00 88 1026.8
20260906021540 51 279 0.0 0.0 0.00 0.49 0.00 88 1026.7
20260906020040 51 279 0.0 0.0 0.00 0.49 0.00 88 1026.6
20260906014540 51 279 0.0 0.0 0.00 0.49 0.00 88 1026.6
20260906013056 51 279 0.0 0.0 0.00 0.49 0.00 88 1026.6
20260906011545 51 279 0.0 0.0 0.00 0.49 0.00 88 1026.5
20260906010035 52 279 0.0 0.0 0.00 0.49 0.00 87 1026.5
20260906004533 52 279 0.0 0.0 0.00 0.49 0.00 88 1026.4
20260906003036 52 279 0.0 0.0 0.00 0.49 0.00 87 1026.5
20260906001532 53 279 0.0 0.0 0.00 0.49 0.00 87 1026.6
20260906000030 53 279 0.0 0.0 0.00 0.49 0.00 87 1026.5
20260905234528 53 279 0.0 0.0 0.00 0.49 0.00 86 1026.4
20260905233028 53 279 0.0 0.0 0.00 0.49 0.00 86 1026.2
20260905231528 54 279 0.0 0.0 0.00 0.49 0.00 86 1026.0
20260905230024 54 279 0.0 0.0 0.00 0.49 0.00 85 1026.1
20260905224521 55 279 0.0 0.0 0.00 0.49 0.00 85 1025.9
20260905223019 55 279 0.0 0.0 0.00 0.49 0.00 84 1025.9
20260905221516 55 279 0.0 0.0 0.00 0.49 0.00 83 1025.7
20260905220014 55 279 0.0 0.9 0.00 0.49 0.00 82 1025.5
20260905214512 56 279 0.0 0.0 0.00 0.49 0.49 81 1025.3
20260905213008 57 279 0.0 0.0 0.00 0.49 0.49 81 1025.1
20260905211507 57 279 0.0 0.0 0.00 0.49 0.49 80 1024.9
20260905210005 58 279 0.0 0.0 0.00 0.49 0.49 78 1024.8
20260905204503 58 279 0.0 0.0 0.00 0.49 0.49 77 1024.7
20260905203003 59 279 0.0 0.0 0.00 0.49 0.49 76 1024.6
20260905201502 60 279 0.0 0.0 0.00 0.49 0.49 75 1024.5
20260905200107 60 279 0.0 0.0 0.00 0.49 0.49 74 1024.3
20260905194558 61 279 0.0 0.0 0.00 0.49 0.49 71 1024.1
20260905193057 62 279 0.0 0.0 0.00 0.49 0.49 70 1024.2
20260905191556 62 279 0.0 0.0 0.00 0.49 0.49 68 1024.0
20260905190055 64 279 0.0 0.0 0.00 0.49 0.49 65 1023.8
20260905184554 65 279 0.0 0.0 0.00 0.49 0.49 61 1023.7
20260905183051 67 279 0.0 0.0 0.00 0.49 0.49 58 1023.4
20260905181549 68 279 0.0 0.0 0.00 0.49 0.49 55 1023.3
20260905180048 70 279 0.0 0.0 0.00 0.49 0.49 52 1023.1
20260905174548 70 279 0.0 3.5 0.00 0.49 0.49 49 1022.9
20260905173044 71 279 0.0 1.7 0.00 0.49 0.49 49 1022.7
20260905171555 72 278 0.0 2.6 0.00 0.49 0.49 48 1022.5
20260905170040 72 266 0.0 3.5 0.00 0.49 0.49 47 1022.4
20260905164545 72 246 0.0 1.7 0.00 0.49 0.49 48 1022.3
20260905163048 73 275 0.0 1.7 0.00 0.49 0.49 48 1022.0
20260905161537 74 236 0.0 3.5 0.00 0.49 0.49 45 1022.0
20260905160036 74 284 0.9 3.5 0.00 0.49 0.49 46 1021.9
20260905154544 75 244 0.0 5.2 0.00 0.49 0.49 47 1021.8
20260905153035 76 259 0.0 3.5 0.00 0.49 0.49 45 1021.7
20260905151535 78 273 0.0 5.2 0.00 0.49 0.49 43 1021.6
20260905150041 77 258 0.9 5.2 0.00 0.49 0.49 44 1021.5
20260905144537 78 144 0.9 6.1 0.00 0.49 0.49 45 1021.4
20260905143033 78 284 0.9 5.2 0.00 0.49 0.49 45 1021.5
20260905141534 78 286 0.0 4.3 0.00 0.49 0.49 47 1021.5
20260905140029 78 263 0.0 5.2 0.00 0.49 0.49 49 1021.5
20260905134527 77 234 0.9 3.5 0.00 0.49 0.49 49 1021.6
20260905133024 76 273 0.0 4.3 0.00 0.49 0.49 53 1021.5
20260905131533 75 14 0.0 4.3 0.00 0.49 0.49 54 1021.6
20260905130021 75 284 0.0 3.5 0.00 0.49 0.49 54 1021.7
20260905124521 75 241 0.0 2.6 0.00 0.49 0.49 58 1021.8
20260905123029 75 290 0.0 1.7 0.00 0.49 0.49 58 1021.6
20260905121517 74 259 0.0 3.5 0.00 0.49 0.49 58 1021.7
20260905120022 74 211 0.9 4.3 0.00 0.49 0.49 57 1021.9
20260905114517 73 320 0.0 3.5 0.00 0.49 0.49 62 1021.8
20260905113011 71 287 0.0 3.5 0.00 0.49 0.49 63 1021.9
20260905111513 72 303 0.0 4.3 0.00 0.49 0.49 64 1021.8
20260905110008 72 267 0.9 4.3 0.00 0.49 0.49 65 1021.8
20260905104515 71 263 0.9 5.2 0.00 0.49 0.49 68 1021.9
20260905103003 69 287 0.9 5.2 0.00 0.49 0.49 69 1022.0
20260905101501 69 254 0.0 2.6 0.00 0.49 0.49 72 1021.9
20260905100104 68 286 0.0 2.6 0.00 0.49 0.49 74 1021.9
20260905094716 68 319 0.0 2.6 0.00 0.49 0.49 78 1021.9
20260905093116 66 287 0.0 3.5 0.00 0.49 0.49 81 1021.8
20260905091602 66 277 0.0 3.5 0.00 0.49 0.49 80 1021.8
20260905090055 66 271 0.0 1.7 0.00 0.49 0.49 81 1021.6
20260905084604 65 284 0.0 2.6 0.00 0.49 0.49 81 1021.3
20260905083053 64 249 0.0 2.6 0.00 0.49 0.49 85 1021.3
20260905081553 63 234 0.0 0.9 0.00 0.49 0.49 90 1021.1
20260905080105 62 234 0.0 0.9 0.00 0.49 0.49 92 1021.0
20260905074601 61 221 0.0 0.9 0.00 0.49 0.49 94 1021.2
20260905073105 60 221 0.0 0.0 0.00 0.49 0.49 94 1020.9
20260905071552 60 221 0.0 0.0 0.00 0.49 0.49 94 1020.8
20260905070048 59 221 0.0 0.0 0.00 0.49 0.49 95 1020.7
20260905064548 59 221 0.0 0.0 0.00 0.49 0.49 95 1020.9
20260905063047 58 221 0.0 0.0 0.00 0.49 0.49 94 1020.7
20260905061559 58 221 0.0 0.0 0.00 0.49 0.49 95 1020.3
20260905060059 58 221 0.0 0.9 0.00 0.49 0.49 95 1020.0
20260905054554 58 221 0.0 0.9 0.00 0.49 0.49 95 1019.8
20260905053042 58 221 0.0 0.0 0.00 0.49 0.49 95 1019.7